GFSSW_sfc_dewp_336.txt.gz
Dewpoint
58 58 58 59 58 58 58 59 60 59 59 59 60 59 59 59 58 52 28 32 39 67 61 46 48 41 38 38 48 51 48 48 46 44 46 50 54 58 59 58 59 59 59 60 63
58 58 57 58 58 58 58 58 59 59 59 59 59 59 59 59 50 38 48 62 66 67 43 42 40 39 39 48 48 48 49 49 49 44 47 50 53 54 57 58 57 57 58 55 62
58 58 57 57 57 57 57 58 58 59 59 59 59 59 58 57 47 36 61 66 69 62 40 39 38 37 43 48 48 52 50 52 50 45 51 50 53 55 57 57 56 55 53 51 51
58 58 57 56 57 57 57 57 58 58 59 59 59 58 59 53 32 36 69 69 69 52 43 39 35 41 46 48 52 50 51 51 52 51 51 52 55 57 57 58 57 56 51 50 51
58 57 57 56 55 57 57 57 57 57 58 58 58 59 52 45 33 53 68 67 55 46 41 36 38 46 45 48 49 51 50 51 52 50 53 55 56 58 58 59 58 52 51 51 52
58 56 55 56 55 56 57 57 57 57 57 58 59 58 49 29 39 55 50 51 44 39 32 36 34 45 48 48 46 48 50 50 47 47 54 56 57 57 59 59 55 51 50 52 54
57 57 55 55 55 56 57 57 56 57 57 58 59 54 44 31 39 48 46 41 40 36 31 32 37 45 47 47 52 51 45 45 47 46 52 55 53 57 58 56 53 51 51 52 53
57 55 55 55 55 55 57 56 56 57 59 59 59 51 29 38 41 40 42 38 35 35 33 43 45 46 44 48 49 48 49 44 47 48 51 52 51 58 58 55 53 52 53 54 55
56 55 54 54 55 56 56 56 56 57 59 59 50 47 27 43 36 37 39 37 32 32 32 35 45 44 45 47 43 46 41 46 48 48 50 52 53 58 58 56 54 53 53 55 54
55 54 54 54 54 56 55 55 55 55 55 52 45 33 29 28 32 33 36 37 29 28 27 29 41 41 43 37 29 41 44 46 46 44 47 50 53 57 58 57 55 55 55 55 54
55 54 54 54 54 55 49 43 37 39 47 28 30 32 25 25 32 28 30 29 30 28 28 29 33 34 35 40 36 41 43 43 47 46 46 47 53 55 57 55 54 54 55 55 55
55 54 53 53 53 53 49 35 37 34 31 40 36 35 34 28 26 28 29 27 33 26 29 27 26 29 34 34 38 39 43 43 46 48 47 50 52 55 56 55 55 55 55 55 55
54 53 53 53 53 49 40 37 34 33 29 27 36 27 26 30 26 24 28 28 26 25 25 25 25 24 28 33 34 39 35 33 33 45 51 52 50 52 53 55 56 56 55 55 55
54 53 53 53 47 43 39 36 34 32 25 24 27 25 22 25 27 25 29 27 27 23 24 23 23 19 23 33 33 31 38 35 33 34 34 48 42 49 52 53 53 51 54 54 52
54 53 53 53 47 29 33 30 33 29 19 25 21 25 22 24 25 25 29 25 23 22 22 20 19 18 33 33 33 33 38 36 33 32 34 43 43 46 50 50 50 47 48 48 50
54 54 53 51 50 42 40 35 36 22 19 27 24 20 19 21 24 24 25 28 27 25 23 19 18 32 34 35 36 37 41 37 35 29 24 41 42 42 46 48 47 44 46 46 47
54 53 51 49 30 39 31 35 29 21 26 32 32 34 29 19 22 21 22 23 22 19 20 22 21 26 38 34 34 39 34 28 24 24 26 43 41 43 48 47 46 44 42 44 46
53 51 50 50 46 39 36 31 27 33 36 37 35 35 34 20 22 26 25 23 23 23 21 21 29 34 37 33 33 38 30 26 22 23 24 42 40 42 49 48 48 45 43 44 44
51 48 47 46 48 37 35 30 28 40 39 35 36 39 38 35 27 24 36 40 41 38 33 32 33 37 37 38 37 36 30 28 24 28 24 40 43 44 48 47 45 41 42 42 43
49 46 42 36 40 39 33 32 35 46 43 40 38 42 42 42 40 38 42 43 42 42 41 37 35 37 35 40 38 36 33 25 29 27 23 39 41 39 45 45 41 41 42 41 36
49 32 40 33 39 38 31 33 42 46 44 41 45 43 44 43 44 44 41 44 42 44 41 37 39 37 32 32 31 28 26 31 29 30 28 29 35 43 43 41 40 40 40 39 29
53 36 43 37 31 36 32 33 41 44 43 46 48 49 47 45 44 43 42 44 46 47 43 41 37 35 33 33 35 31 30 31 28 25 30 31 35 42 41 41 40 40 40 40 34
47 45 45 34 28 30 31 31 32 38 44 46 46 47 48 46 42 45 46 46 47 46 41 40 35 29 25 28 35 37 32 29 31 32 27 29 36 43 43 41 40 38 38 36 28
49 42 41 34 33 28 29 28 39 42 43 47 46 47 46 44 45 44 43 47 50 46 52 48 39 31 26 26 33 30 30 29 28 28 28 33 41 41 42 41 41 39 38 33 32
52 41 50 39 30 27 35 39 41 44 45 47 41 42 41 40 44 43 47 44 46 50 46 44 35 40 38 38 37 29 28 29 27 26 26 33 40 41 42 42 41 41 33 31 32
48 53 55 52 48 43 47 43 44 47 45 45 46 47 45 38 39 43 46 45 45 46 47 43 36 41 36 37 38 33 34 34 28 30 39 40 40 43 39 35 32 30 30 32 37
56 60 56 51 48 48 50 49 50 49 46 47 49 48 46 39 37 42 44 46 46 42 44 42 41 39 35 39 40 36 39 35 34 37 38 37 39 36 32 30 29 29 33 39 39

GFSSW_sfc_dewp_339.txt.gz
Dewpoint
58 57 57 57 57 58 58 58 59 59 59 59 59 59 59 58 58 50 25 29 37 67 60 54 47 42 38 37 49 52 48 47 47 46 46 53 55 59 59 56 59 59 59 61 64
58 57 57 56 56 57 58 58 58 59 59 59 59 59 58 58 49 37 47 61 67 67 43 38 37 39 38 46 48 49 48 47 49 46 47 51 55 57 57 57 57 56 60 63 63
58 57 57 56 56 56 57 58 58 58 59 59 59 59 58 57 44 27 60 64 68 64 40 41 40 38 40 48 47 51 46 52 50 51 49 52 54 56 57 55 56 55 56 61 52
58 57 56 57 55 55 56 57 58 58 58 58 58 58 58 53 21 36 69 69 68 44 38 36 35 38 46 46 50 48 51 50 50 52 52 52 56 57 57 57 57 53 54 54 51
57 56 55 55 55 55 56 57 57 57 57 58 58 59 53 43 32 58 70 69 55 42 37 37 36 44 44 48 49 50 50 50 52 52 53 56 56 57 58 55 52 50 50 51 52
57 56 55 55 55 55 55 57 57 57 57 57 58 59 48 24 36 58 56 48 45 39 37 36 39 47 47 48 46 48 49 49 49 52 56 57 57 57 58 52 50 50 50 51 52
57 55 54 54 54 54 54 57 56 56 56 58 58 55 43 26 40 50 46 39 42 37 29 34 36 45 47 48 51 50 48 49 48 49 54 56 54 56 58 54 52 50 50 52 53
57 54 54 54 54 54 55 57 56 56 58 60 59 52 29 33 43 40 42 34 36 37 34 38 45 46 46 49 48 46 47 42 46 47 55 52 49 58 58 55 52 51 51 52 53
55 54 54 54 54 54 55 56 56 56 58 59 49 46 23 46 35 34 38 30 33 34 34 40 45 45 45 44 40 44 36 43 46 49 52 51 52 57 57 56 53 52 52 53 53
55 54 53 54 54 54 54 54 56 55 55 53 47 31 24 25 33 36 38 38 35 30 28 34 41 40 43 34 28 33 42 43 45 47 49 51 54 56 57 56 55 53 53 54 54
56 54 53 53 53 53 49 44 35 36 47 25 26 22 25 23 27 30 33 35 34 30 28 30 27 26 30 37 35 38 42 41 43 45 45 49 54 55 57 56 56 55 54 55 55
55 54 53 53 53 52 49 28 33 34 26 36 36 34 35 31 27 23 30 28 28 25 30 25 23 25 29 33 37 40 40 41 43 47 46 51 53 56 57 56 56 55 55 55 55
55 54 53 53 53 48 38 29 33 28 29 30 37 31 27 32 28 25 27 29 26 26 25 24 23 26 25 35 36 39 40 38 38 49 52 51 50 51 55 55 55 56 56 56 55
54 54 53 53 45 43 35 37 34 31 24 23 28 25 24 25 25 27 27 27 27 24 25 24 24 24 20 34 34 33 35 36 38 41 39 48 40 50 51 52 54 54 54 55 55
54 54 53 52 43 27 29 34 33 27 16 22 22 23 22 20 23 23 28 27 25 25 23 22 20 24 34 32 34 31 38 35 34 32 36 45 41 43 49 48 50 50 52 52 52
54 53 52 50 49 42 44 36 31 21 19 23 32 28 25 23 23 25 27 29 27 27 25 22 22 22 28 35 34 39 39 35 30 27 23 37 41 40 45 47 49 44 50 48 50
54 52 50 50 20 41 35 34 29 19 24 33 34 36 36 26 21 24 22 27 24 21 22 23 21 25 38 36 37 39 32 29 26 25 23 42 39 40 46 49 46 43 46 45 50
52 51 50 50 47 41 35 29 24 27 33 37 35 36 36 36 27 24 24 30 38 23 22 21 23 35 36 33 34 37 31 31 23 22 21 41 38 41 49 49 46 44 44 45 48
51 48 46 45 49 41 32 27 25 34 39 38 38 40 38 41 42 38 38 39 40 37 30 33 33 36 39 38 38 39 31 31 23 27 24 37 41 44 48 48 47 43 43 43 44
48 44 38 43 42 37 31 30 32 44 43 41 39 43 40 41 38 40 40 42 40 41 39 36 33 38 36 36 36 36 33 28 28 26 24 36 40 40 43 46 46 41 42 42 39
48 34 32 39 38 34 27 30 36 45 45 42 41 41 43 41 42 41 38 42 42 43 41 38 36 36 33 31 32 29 27 31 28 30 26 28 34 43 43 45 42 41 41 40 31
50 33 41 36 29 35 30 33 37 42 45 47 47 48 44 45 43 41 43 44 47 48 42 41 37 35 32 31 36 29 29 30 27 24 29 29 31 42 43 43 41 41 40 39 29
45 44 47 34 27 29 31 31 32 41 43 45 47 47 49 45 40 43 46 46 47 46 39 40 33 31 29 22 31 34 32 29 31 30 27 27 32 42 42 41 40 40 40 40 39
45 43 49 35 33 28 27 28 30 43 45 46 45 47 47 44 44 43 43 48 49 45 54 47 38 31 28 27 31 33 30 30 28 26 26 32 35 41 41 40 40 40 41 42 34
49 43 50 45 43 40 33 39 41 42 45 47 44 45 45 42 45 43 47 46 46 50 47 41 32 38 39 39 38 37 33 29 28 28 26 27 38 41 41 41 42 43 40 33 33
52 53 55 51 49 47 48 45 46 45 46 45 43 47 49 45 43 40 45 44 43 44 44 42 34 40 38 37 39 35 40 31 32 38 39 41 39 42 43 40 42 42 31 37 40
53 58 53 49 47 46 49 50 50 50 47 48 47 46 42 44 44 40 45 46 45 43 43 41 40 38 35 39 40 35 43 40 37 40 38 35 37 37 32 32 34 31 36 39 40

GFSSW_sfc_dewp_342.txt.gz
Dewpoint
58 57 56 56 56 56 56 58 58 58 59 59 59 59 59 59 58 47 21 30 40 67 63 56 47 41 39 41 52 53 46 46 46 46 46 53 55 59 58 56 59 59 59 60 64
57 56 56 56 55 55 55 57 58 58 59 59 59 59 58 58 49 35 48 64 66 66 45 38 37 38 36 44 48 49 46 46 48 47 48 53 56 58 57 57 56 57 61 63 64
57 56 55 55 55 55 55 56 58 58 58 59 58 58 58 57 39 21 64 66 67 66 39 39 38 38 39 48 47 49 44 50 49 50 50 53 55 57 56 55 56 55 61 62 62
57 56 56 55 55 54 54 55 57 58 58 58 58 58 58 53 17 43 66 65 67 52 39 36 36 37 45 45 50 48 50 49 49 51 50 53 56 56 57 56 58 58 61 56 56
57 56 55 54 54 54 54 55 57 57 57 57 58 58 54 40 32 68 68 67 57 39 34 35 34 44 44 46 50 49 50 50 51 52 53 57 56 57 56 53 52 56 57 54 52
57 55 54 54 54 54 54 54 56 57 57 57 58 58 46 23 45 64 61 49 42 38 35 37 40 46 47 48 46 49 49 49 49 54 56 56 57 57 56 52 50 53 54 53 52
56 55 54 54 54 54 54 54 56 56 57 58 58 55 41 24 46 55 47 40 43 36 33 36 40 46 48 48 51 49 47 46 48 51 55 56 54 55 55 53 50 49 51 52 52
55 54 54 54 54 54 54 54 56 57 57 59 59 53 27 33 47 44 42 37 40 39 35 37 43 46 47 50 46 45 46 41 45 49 55 53 48 57 55 52 50 49 50 52 52
55 54 53 53 54 54 54 53 55 56 57 59 49 47 20 45 35 34 37 27 33 34 36 44 46 46 45 43 39 41 35 42 45 49 55 52 50 57 57 54 52 51 50 51 52
56 54 53 53 53 53 53 53 57 56 55 54 48 30 25 21 32 35 37 35 34 30 29 39 42 41 42 36 30 31 41 41 43 46 53 51 51 57 57 56 55 52 52 52 52
55 54 53 53 53 53 48 41 26 34 49 21 22 21 21 25 28 31 37 36 36 31 26 32 30 28 28 38 34 30 39 37 42 47 45 48 52 56 57 56 56 55 54 53 53
55 54 53 53 53 52 48 24 30 32 25 33 37 32 33 32 27 25 31 28 29 26 27 25 23 24 27 28 34 39 39 39 42 46 44 49 52 55 57 56 56 56 55 55 55
55 54 53 53 52 48 34 26 32 30 25 27 34 34 31 31 26 25 27 28 27 27 26 24 23 26 25 29 35 37 38 37 37 50 52 51 48 53 56 57 57 56 56 56 55
54 53 53 53 45 42 34 37 33 31 23 20 26 29 26 28 26 28 26 25 28 24 26 25 25 24 20 24 35 33 37 38 46 41 37 47 39 48 52 54 54 55 55 56 56
54 53 53 51 39 28 32 38 32 26 17 21 26 23 23 16 18 22 28 27 23 24 23 24 22 20 28 27 34 32 34 36 39 39 40 44 41 42 49 49 51 52 54 53 55
54 53 52 49 47 40 44 35 28 20 20 23 34 34 21 23 22 23 27 28 28 26 27 24 25 19 21 30 34 39 37 32 28 29 24 34 41 40 45 48 49 50 48 51 52
53 52 50 50 19 42 37 34 20 18 24 30 34 35 35 34 30 25 25 26 24 23 23 24 22 25 36 36 37 36 33 30 29 28 27 41 40 42 45 47 49 46 48 49 51
52 51 49 50 48 43 33 29 25 23 33 36 39 38 37 41 36 36 27 34 37 24 22 22 23 34 37 33 33 34 36 35 28 26 26 41 39 40 47 49 48 45 48 46 50
50 48 46 45 49 43 30 26 24 28 39 39 37 38 37 41 41 39 38 32 36 29 25 30 31 36 37 37 37 36 30 34 27 27 24 31 39 43 48 49 48 44 44 45 48
48 43 34 44 45 35 28 28 30 37 43 41 37 41 37 38 37 40 39 42 40 42 38 36 30 37 37 37 34 35 32 30 30 26 23 29 39 39 43 46 47 44 43 44 45
48 33 36 41 37 32 25 25 31 39 44 42 39 40 42 42 41 40 39 42 44 43 40 38 35 33 36 33 30 29 28 30 28 30 25 27 32 42 42 44 47 46 43 43 42
45 33 41 35 25 34 28 31 36 40 45 46 46 47 43 44 44 39 42 42 47 47 41 43 37 35 34 33 33 33 32 30 28 27 30 29 29 39 43 43 46 44 42 43 39
43 43 47 33 24 28 31 31 32 39 41 45 47 46 48 44 40 42 44 46 47 44 37 38 34 31 29 27 30 34 36 31 31 30 29 26 32 42 42 42 43 42 41 41 36
42 47 48 38 34 29 26 27 30 43 45 46 46 46 45 43 44 41 43 46 49 45 53 45 37 32 28 28 30 35 36 32 30 27 28 30 31 36 41 41 42 43 43 42 40
50 47 50 43 42 43 36 35 36 39 45 46 45 45 43 42 44 43 46 46 46 50 46 40 33 36 36 37 39 37 36 31 31 31 28 29 36 38 41 42 42 43 40 35 38
54 51 53 50 48 47 45 46 45 43 44 43 43 46 46 43 42 43 44 44 43 43 44 43 35 39 37 37 40 38 39 33 35 38 38 39 38 41 41 43 44 44 34 40 41
52 57 50 47 46 45 46 48 48 50 45 48 45 46 44 44 45 45 44 45 45 42 42 41 40 38 36 39 39 34 39 39 37 41 40 34 36 34 32 34 34 35 40 40 40

GFSSW_sfc_dewp_345.txt.gz
Dewpoint
57 56 56 56 55 55 55 56 58 58 58 59 59 59 59 58 57 44 16 28 40 68 65 57 44 43 46 48 52 51 46 45 46 47 47 54 53 58 58 56 57 58 58 59 64
57 56 56 55 55 54 54 55 57 58 58 59 59 58 58 58 44 30 44 60 67 67 47 40 39 41 40 41 48 47 47 46 47 46 47 53 53 56 56 55 56 58 61 63 64
57 56 55 55 55 54 54 55 56 58 58 58 58 58 58 56 31 11 60 67 67 61 42 36 35 36 37 47 47 48 44 48 48 49 49 52 54 57 55 54 54 55 61 62 62
56 56 55 55 55 54 54 54 55 58 58 58 58 58 58 53 18 32 65 68 68 47 38 38 36 37 43 45 48 45 48 49 49 50 50 52 54 55 55 54 57 57 61 61 61
56 55 55 54 54 54 54 54 54 57 57 57 57 58 55 37 34 53 69 66 58 38 36 35 36 41 42 46 48 46 49 50 49 51 51 55 54 53 55 56 57 61 61 60 60
55 55 54 54 54 54 54 54 54 55 57 57 57 58 45 25 45 62 54 52 42 36 34 35 36 44 46 47 46 48 48 48 49 53 55 53 55 56 56 54 57 59 58 59 59
55 54 54 54 54 54 54 54 54 55 57 57 58 54 39 25 49 58 46 40 40 36 31 36 43 45 48 47 50 48 46 47 48 54 54 55 53 54 56 54 55 57 57 57 58
56 54 54 54 54 54 54 54 54 55 57 58 59 52 27 37 53 49 41 37 41 36 31 34 39 46 48 50 46 45 47 46 45 52 55 52 45 52 56 54 54 55 56 57 58
56 54 54 53 54 54 54 54 55 56 57 59 49 44 20 50 39 42 38 29 35 36 34 46 47 46 46 45 42 42 35 41 42 49 54 52 48 54 57 55 54 53 53 55 57
56 55 53 53 53 53 53 54 56 57 54 54 48 32 27 20 32 35 38 32 31 32 33 38 43 42 43 39 27 28 35 39 39 45 52 51 51 55 58 55 55 53 52 52 52
56 55 54 53 53 52 48 43 30 37 46 26 21 21 20 27 29 34 34 32 34 31 28 35 32 31 28 39 34 33 31 32 37 45 47 47 48 50 58 57 56 56 54 54 53
55 55 54 53 53 52 49 26 31 31 26 29 36 32 30 31 22 26 36 30 32 28 29 28 29 28 27 28 34 32 34 36 42 46 46 46 46 51 57 57 57 57 57 55 55
55 54 53 53 53 49 35 26 32 30 28 27 32 31 29 30 23 23 29 29 28 27 27 26 25 26 25 25 28 31 35 36 36 48 49 48 46 51 55 57 57 58 58 57 56
54 54 53 52 47 42 34 36 34 33 27 21 24 30 28 28 21 25 27 26 27 26 27 27 26 24 21 23 28 27 33 36 42 41 33 48 36 45 53 55 56 57 58 57 57
54 53 53 51 43 32 34 39 32 34 23 23 27 25 25 20 19 23 27 26 23 24 26 24 25 24 24 24 29 26 34 36 40 39 39 43 42 42 49 50 52 56 56 57 57
54 53 52 49 49 39 42 35 35 24 23 27 34 34 18 19 18 22 26 28 28 26 26 24 25 22 23 25 29 37 37 34 33 36 32 35 41 37 45 48 49 52 54 56 56
53 52 50 50 28 43 39 37 25 21 23 32 34 36 35 36 31 23 24 28 25 25 26 27 24 23 25 33 38 37 36 30 29 28 29 42 42 42 45 46 48 49 51 51 53
52 50 50 50 49 46 38 35 23 22 31 35 39 38 36 40 36 38 26 25 34 26 22 22 22 32 35 34 35 36 39 33 30 28 27 42 38 42 46 48 50 50 49 50 52
51 49 47 45 48 48 37 31 25 28 37 38 36 35 35 39 39 39 36 28 34 29 27 27 28 34 37 36 37 36 35 36 34 30 26 31 36 41 47 48 49 48 47 49 50
51 46 38 44 48 41 35 30 30 32 42 39 33 39 35 37 36 37 37 40 38 40 40 38 33 36 37 35 33 36 33 31 32 27 24 28 36 36 38 44 48 48 46 48 48
52 40 43 43 41 41 31 29 30 33 42 39 37 39 40 39 40 38 39 40 42 42 40 40 38 34 36 33 31 31 31 32 34 32 27 27 32 40 43 45 46 48 48 46 47
46 36 45 39 34 36 32 31 35 34 45 44 44 43 41 41 41 38 40 42 45 45 40 42 42 37 35 35 32 35 33 33 30 30 33 31 30 41 44 43 45 45 48 47 48
45 46 47 40 29 33 34 30 32 31 39 42 45 45 47 44 41 41 43 45 46 44 42 43 40 35 34 30 34 36 36 35 36 36 33 27 31 38 43 43 44 45 46 47 45
46 43 44 43 40 34 31 29 27 40 41 45 46 46 46 44 45 42 42 45 46 44 53 49 42 37 32 31 34 37 37 35 35 33 30 29 34 37 40 43 44 44 44 42 41
54 51 51 39 45 45 41 36 35 40 44 46 46 44 45 44 44 43 45 44 45 49 47 47 42 39 38 37 39 36 33 32 31 31 32 35 36 39 40 44 44 43 40 39 40
55 54 52 51 49 47 46 44 42 40 45 42 44 45 46 45 44 43 44 45 43 44 46 47 41 42 38 37 38 36 36 33 34 36 35 37 36 37 39 44 45 43 39 40 41
54 59 53 48 48 46 46 47 47 49 45 46 45 46 44 43 46 47 48 49 48 45 46 46 45 42 37 40 38 36 38 38 37 37 37 34 37 35 36 36 37 39 39 39 41